POERUNWV Weather Reports


Display with metric or nautical units.
time (UTC)temp
F
wind
direction
speed
MPH
gust
MPH
rain 1hr
in
rain 24hr
in
rain mn
in
humidity
%
barometer
mb
20260503180040 49 283 3.0 8.0 0.00 0.00 0.00 41 1017.3
20260503174549 49 333 3.0 8.0 0.00 0.00 0.00 43 1017.3
20260503173037 47 338 3.0 9.0 0.00 0.00 0.00 43 1017.4
20260503171536 48 306 3.0 8.0 0.00 0.00 0.00 44 1017.4
20260503081551 32 0 0.0 1.0 0.00 0.00 0.00 87 1015.4
20260503071557 33 311 1.0 3.0 0.00 0.00 0.00 86 1014.8
20260503054551 33 0 0.0 1.0 0.00 0.00 0.00 84 1014.7
20260503053032 33 352 0.0 2.0 0.00 0.00 0.00 83 1014.8
20260503051542 33 0 0.0 2.0 0.00 0.00 0.00 82 1014.7
20260503050036 34 350 1.0 3.0 0.00 0.00 0.00 82 1014.7
20260503044535 34 329 1.0 2.0 0.00 0.00 0.00 82 1014.8
20260503043035 35 351 1.0 4.0 0.00 0.00 0.00 81 1014.9
20260503041535 35 336 1.0 3.0 0.00 0.00 0.00 81 1014.8
20260503040034 35 353 1.0 4.0 0.00 0.00 0.00 80 1014.9
20260503034538 36 338 0.0 3.0 0.00 0.00 0.00 79 1014.9
20260503033048 36 334 1.0 5.0 0.00 0.00 0.00 78 1014.9
20260503031543 37 350 2.0 5.0 0.00 0.00 0.00 77 1014.8
20260503030037 37 350 2.0 5.0 0.00 0.00 0.00 76 1014.7
20260503024543 37 344 1.0 4.0 0.00 0.00 0.00 73 1014.8
20260503023035 38 348 1.0 5.0 0.00 0.00 0.00 71 1014.8
20260503021536 38 330 2.0 6.0 0.00 0.00 0.00 69 1014.7
20260503020035 38 317 1.0 6.0 0.00 0.00 0.00 69 1014.7
20260503014534 39 335 3.0 6.0 0.00 0.00 0.00 69 1014.8
20260503013036 39 353 1.0 5.0 0.00 0.00 0.00 67 1014.7
20260503011531 39 353 2.0 6.0 0.00 0.00 0.00 65 1014.5
20260503010036 39 348 1.0 5.0 0.00 0.00 0.00 65 1014.3
20260503004538 40 346 2.0 4.0 0.00 0.00 0.00 60 1014.3
20260503003039 41 330 1.0 4.0 0.00 0.00 0.00 58 1013.9
20260503001533 41 308 1.0 4.0 0.00 0.00 0.00 57 1013.9
20260503000037 42 324 2.0 5.0 0.00 0.00 0.00 55 1013.8
20260502234547 42 306 2.0 5.0 0.00 0.00 0.00 53 1013.6
20260502233035 42 310 2.0 4.0 0.00 0.00 0.00 51 1013.4
20260502231534 43 311 1.0 3.0 0.00 0.00 0.00 52 1013.3
20260502230037 43 344 1.0 4.0 0.00 0.00 0.00 51 1013.2
20260502224537 43 357 1.0 5.0 0.00 0.00 0.00 55 1013.1
20260502223036 44 314 1.0 4.0 0.00 0.00 0.00 51 1013.1
20260502221536 44 310 1.0 6.0 0.00 0.00 0.00 50 1013.0
20260502220035 44 306 1.0 4.0 0.00 0.00 0.00 50 1013.0
20260502214537 45 312 3.0 6.0 0.00 0.00 0.00 50 1012.9
20260502213044 45 344 2.0 6.0 0.00 0.00 0.00 48 1012.8
20260502211538 45 327 2.0 8.0 0.00 0.00 0.00 49 1012.7
20260502210034 44 308 2.0 4.0 0.00 0.00 0.00 47 1012.8
20260502204536 45 298 2.0 5.0 0.00 0.00 0.00 47 1012.8
20260502203044 45 311 2.0 6.0 0.00 0.00 0.00 49 1012.9
20260502201539 45 309 2.0 4.0 0.00 0.00 0.00 49 1012.9
20260502200035 44 315 2.0 8.0 0.00 0.00 0.00 47 1013.1
20260502194535 44 311 1.0 3.0 0.00 0.00 0.00 50 1013.1
20260502193050 44 352 1.0 4.0 0.00 0.00 0.00 50 1013.2
20260502191538 44 331 2.0 5.0 0.00 0.00 0.00 50 1013.4
20260502190041 44 325 2.0 6.0 0.00 0.00 0.00 51 1013.4
20260502184543 44 348 2.0 5.0 0.00 0.00 0.00 50 1013.6
20260502183033 45 311 1.0 9.0 0.00 0.00 0.00 49 1013.5
20260502181542 44 334 2.0 8.0 0.00 0.00 0.00 54 1013.7